Regional Weather Roundup
Issued by NWS Charleston, SC

Home | Current Version | Previous Version | Text Only | Print | Product List | Glossary On
Versions: 1 2 3 4 5 6 7 8 9 10 11 12 13 14 15 16 17 18 19 20 21 22 23 24 25 26 27 28 29 30 31 32 33 34 35 36 37 38 39 40 41 42 43 44 45 46 47 48 49 50
936
ASUS42 KCHS 260626
RWRCHS

REGIONAL WEATHER ROUNDUP
NATIONAL WEATHER SERVICE CHARLESTON SC
100 AM EST SUN FEB 26 2017

NOTE: "FAIR" INDICATES FEW OR NO CLOUDS BELOW 12,000 FEET WITH NO
SIGNIFICANT WEATHER AND/OR OBSTRUCTIONS TO VISIBILITY.

NOT ALL STATIONS ARE QUALITY CONTROLLED. USE DATA WITH CAUTION...
ESPECIALLY DEWPOINT OBSERVATIONS.

SCZ027-030-031-034>040-042>050-260700-
...SOUTHEAST SOUTH CAROLINA...

CITY           SKY/WX    TMP DP  RH WIND       PRES   REMARKS
N CHARLESTON   CLEAR     57  19  22 NW12      29.96R
6HR MIN TEMP:  57; 6HR MAX TEMP:  71;

WATERFRONT PRK   N/A     60  27  28 NW6       29.94R
MOUNT PLEASANT LGT RAIN  57  27  30 NW8       29.97R
JOHNS ISLAND   FAIR      57  23  26 NW8G15    29.98R
PINOPOLIS        N/A     61  34  36 NW17      29.85R
MONCKS CORNER  FAIR      54  18  24 NW6       29.98R
SUMMERVILLE    FAIR      55  21  26 W10       29.99R
BEAUFORT MCAS  CLEAR     57  25  29 NW10      29.99R
6HR MIN TEMP:  57; 6HR MAX TEMP:  73;

BEAUFORT ARPT  FAIR      55  27  33 NW14      29.99R
HILTON HEAD IS CLEAR     57  23  26 W10       30.01R
WALTERBORO     CLEAR     54  23  30 NW8G16    30.00R
ALLENDALE      FAIR      54  23  30 NW6       30.00R

...SOUTHERN MIDLANDS AND PEE DEE...

CITY           SKY/WX    TMP DP  RH WIND       PRES   REMARKS
GEORGETOWN     FAIR      55  21  26 W8        29.95R
KINGSTREE      FAIR      52  19  28 W9        29.96R
ORANGEBURG     CLEAR     54  20  26 NW8       29.99R
6HR MIN TEMP:  54; 6HR MAX TEMP:  69;

BARNWELL       FAIR      54  23  30 W7G14     30.01R
AIKEN          FAIR      46  21  36 W6        30.05R
MANNING        FAIR      54  21  28 MISG      29.97R
COLUMBIA       CLEAR     49  23  36 W9        29.99R
6HR MIN TEMP:  49; 6HR MAX TEMP:  66;

SUMTER         CLEAR     53  19  26 NW9       29.95R
6HR MIN TEMP:  53; 6HR MAX TEMP:  67;

FLORENCE       CLEAR     53  23  31 NW7       29.95R
6HR MIN TEMP:  53; 6HR MAX TEMP:  72;

MYRTLE BEACH   NOT AVBL
N MYRTLE BEACH CLEAR     58  23  26 W6        29.90R
6HR MIN TEMP:  58; 6HR MAX TEMP:  69;


$$

GAZ063-065-086>088-099>101-113>116-118-119-134>141-150-260700-
...SOUTHEAST GEORGIA...

CITY           SKY/WX    TMP DP  RH WIND       PRES   REMARKS
SAVANNAH ARPT  CLEAR     56  22  26 NW9       30.01R
6HR MIN TEMP:  56; 6HR MAX TEMP:  71;

HUNTER AAF     CLEAR     58  27  30 NW6       29.99R
6HR MIN TEMP:  57; 6HR MAX TEMP:  69;

FORT STEWART   CLEAR     57  22  26 NW12G22   30.00R
6HR MIN TEMP:  55; 6HR MAX TEMP:  71;

STATESBORO     CLEAR     53  28  38 NW8       30.03R
SYLVANIA       CLEAR    N/A N/A N/A NW9       30.04R
CLAXTON        FAIR      53  28  39 W6        30.04R

...CSRA...CENTRAL AND FAR SOUTHEAST GEORGIA...

CITY           SKY/WX    TMP DP  RH WIND       PRES   REMARKS
THOMSON        CLEAR     49  26  40 NW5       30.09R
AUGUSTA-BUSH   CLEAR     53  23  31 NW12      30.02R
6HR MIN TEMP:  53; 6HR MAX TEMP:  67;

AUGUSTA-DANIEL CLEAR     52  19  27 W7        30.03R
SWAINSBORO     FAIR      50  27  40 NW10      30.06R
VIDALIA        CLEAR     54  30  40 NW13      30.05R
EASTMAN        FAIR      51   2  13 CALM      30.09S
HAZLEHURST     FAIR      54  26  33 NW5       30.05R
ALMA           CLEAR     56  24  29 NW9       30.04R
6HR MIN TEMP:  56; 6HR MAX TEMP:  69;

WAYCROSS       CLEAR     55  32  41 N7        30.05R
JESUP          FAIR      54  28  37 NW5       30.04R
BAXLEY         FAIR      54  32  43 NW7       30.04R
BRUNSWICK      CLEAR     55  32  41 NW6       30.04R
SAINT SIMONS   CLEAR     60  30  32 NW9       30.01R
6HR MIN TEMP:  60; 6HR MAX TEMP:  72;


$$

SCZ027-028-034-036>038-045-046-048>050-GAZ119-141-260700-
...LAKE AND SUPPLEMENTAL COASTAL OBSERVATIONS...

STATION/POSITION TIME  TEMP    WIND        PRES    WAVE   SWELL
                       AIR SEA DIR/SP/G            HT/PER HT/PER/DIR
                 (UTC) (F)     (DEG/KT/KT) (MB)    (FT/S) (FT/S/D)
WINYAH BAY       0530   60     290/  6     1013.0R
LAKE MURRAY      0550   52     290/  5/ 10 1014.9R
ACE BASIN NERRS  0530   58     300/  3     1014.0S
FORT PULASKI     0600   58 63  330/  9/ 11 1016.2
SAPELO ISLAND    0600   56     320/  7     1016.0

$$

ANZ835-935-AMZ111-154-330-350-352-354-370-450-454-472-260700-
...C-MAN AND BUOY OBSERVATIONS...

STATION/POSITION TIME  TEMP    WIND        PRES    WAVE   SWELL
                       AIR SEA DIR/SP/G            HT/PER HT/PER/DIR
                 (UTC) (F)     (DEG/KT/KT) (MB)    (FT/S) (FT/S/D)
BUOY 41004       0550   65 69  310/ 19/ 23 1013.0R   6/10   3/120/10
BUOY 41008       0550   63 62  320/ 21/ 25 1015.2R   4/11   2/ 40/11
FOLLY BEACH CMAN 0600   58     300/  7/ 11 1015.2R
CAPERS NEARSHORE NOT AVBL
FRIPP NEARSHORE  0608   61 63  320/ 14/ 19 1015.7R


STATION/POSITION TIME  TEMP    WIND        PRES    WAVE   SWELL
                       AIR SEA DIR/SP/G            HT/PER HT/PER/DIR
                 (UTC) (F)     (DEG/KT/KT) (MB)    (FT/S) (FT/S/D)
5E ST. MARYS GA  0600      65                N/A     3/10   2/100/11
FRYING PAN BUOY  0610   66 69  290/ 19/ 25 1012.1
BUOY 41025       0550   65 74  350/ 23/ 29 1008.8R   8/ 7   5/130/10
CAPE LOOKOUT NC  0600   62     350/ 16/ 19 1010.3R
BUOY 41002       0550   72 71  240/ 16/ 19 1011.8R   7/ 9   5/ 70/ 9
BUOY 41010       NOT AVBL
ST AUGUSTINE FL  0600   64 66  320/  8/  9 1017.0R


$$




USA.gov is the U.S. government's official web portal to all federal, state and local government web resources and services.